Startseite
Über Mich
AHP4
Galerie
Sehschlangen
Tourenbuch
Bookmarks
Elektronik
Bewertung
Geschichten
[Tagesmessung] [Jahreswerte] [Information]

Messwerte vom 13.05.2022

Die letzten Messwerte von 23:58:48 Uhr:
KategorieMesswert
Temperatur [°C]9
Luftdruck [mBar]1003
Sonneneinstrahlung0
Wind [km/h]0 aus Nordwest
Niederschlag [l/m²]0
rel.Luftfeucht.81.9%
CO2 [ppm]580

Diagramme
Messwerte vom 13.05.2022
Tagesaggregation
KategorieMinimumMaximumSchnittSumme
Temperatur [°C]62413.9792
Luftdruck [mBar]99910031001.6229
Sonneneinstrahlung247135.9625
Wind [km/h]18
rF [%]39.996.668.8
Niederschlag [l/m²]0
CO2 [ppm]416711558.9
Einordnung alsVegetationstag

Messungen an benachbarten Tagen: Zur Jahresaggregation 2022
Tabelle aller Messwerte
UhrzeitTemperatur [°C]Luftdruck [mBar]SonneWind [km/h]RichtungRegen [l/m²]rF [%]CO2 [ppm]
00:01:48 9 1002 0 0 NW 0 85.6 568
00:04:47 9 1002 0 0 NW 0 85.4 563
00:07:48 9 1002 0 0 SO 0 85.2 564
00:10:49 9 1002 0 0 SO 0 85.2 560
00:13:48 8 1002 0 0 SO 0 85 563
00:16:47 8 1002 0 0 SO 0 85 554
00:19:48 8 1001 0 0 SO 0 85.2 553
00:22:48 8 1002 0 0 SO 0 85.5 550
00:25:47 8 1002 0 0 SO 0 85.7 553
00:28:47 8 1001 0 0 SO 0 85.8 553
00:31:49 8 1002 0 0 SO 0 85.9 556
00:34:49 8 1002 0 0 SO 0 86.3 561
00:37:47 8 1001 0 0 NW 0 86.4 566
00:40:47 8 1001 0 0 SO 0 87.2 566
00:43:46 8 1001 0 0 SO 0 88.7 559
00:46:49 8 1001 0 0 SO 0 89 565
00:49:46 8 1002 0 0 SO 0 89.3 572
00:52:47 8 1001 0 0 SO 0 88.9 571
00:55:46 8 1001 0 0 SO 0 88.9 573
00:58:46 8 1001 0 0 SO 0 88.9 571
01:01:48 8 1002 0 0 SO 0 88.8 567
01:04:48 8 1002 0 0 SO 0 89.1 570
01:07:47 8 1002 0 0 SO 0 89.1 565
01:10:47 7 1001 0 0 SO 0 89.1 571
01:13:48 7 1002 0 0 SO 0 89.1 573
01:16:48 7 1002 0 0 NW 0 89.3 576
01:19:49 7 1002 0 0 NW 0 89.8 568
01:22:47 7 1002 0 0 NW 0 89.8 571
01:25:48 7 1001 0 0 NW 0 89.9 582
01:28:46 7 1002 0 0 NW 0 89.9 575
01:31:46 7 1002 0 0 N 0 90 581
01:34:44 7 1001 0 0 N 0 90.4 577
01:37:45 7 1002 0 0 N 0 91 585
01:40:44 7 1001 0 1 N 0 91 588
01:43:47 7 1002 0 2 SO 0 94.2 589
01:46:48 8 1002 0 0 W 0 94.7 588
01:49:44 8 1001 0 4 S 0 94 589
01:52:45 8 1002 0 0 N 0 92.6 596
01:55:47 8 1001 0 0 SO 0 91.4 594
01:58:47 8 1002 0 0 SO 0 90.8 594
02:01:49 8 1002 0 0 NW 0 90.8 588
02:04:46 8 1002 0 1 S 0 90.7 586
02:07:48 8 1002 0 0 SO 0 90.5 591
02:10:45 8 1002 0 0 N 0 90.7 589
02:13:48 8 1001 0 2 SO 0 91.3 597
02:16:47 7 1002 0 0 SO 0 91.4 592
02:19:48 7 1001 0 0 SO 0 91.3 592
02:22:47 7 1002 0 0 SO 0 91 600
02:25:48 7 1002 0 0 NW 0 91.4 606
02:28:48 7 1002 0 0 NW 0 92.2 598
02:31:47 7 1002 0 0 NW 0 92.3 594
02:34:46 7 1002 0 0 N 0 92.3 597
02:37:45 7 1001 0 0 N 0 93.2 601
02:40:49 7 1002 0 0 SO 0 92.6 598
02:43:49 7 1000 0 0 SO 0 91.8 601
02:46:47 7 1001 0 0 O 0 91.9 595
02:49:44 7 1001 0 0 O 0 91.7 603
02:52:47 7 1001 0 0 O 0 91.6 597
02:55:47 7 1001 0 0 O 0 91.8 594
02:58:47 7 1002 0 0 O 0 92 597
03:01:47 6 1002 0 0 O 0 92.1 597
03:04:47 7 1001 0 0 O 0 92.4 594
03:07:45 6 1001 0 0 O 0 93.3 588
03:10:46 6 1000 0 0 O 0 92.9 586
03:13:46 6 1001 0 0 O 0 92.8 589
03:16:46 6 1001 0 0 O 0 93 593
03:19:45 6 1001 0 0 O 0 93.1 597
03:22:46 6 1001 0 0 O 0 93.2 600
03:25:46 6 1001 0 0 O 0 93.2 595
03:28:47 6 1001 0 0 O 0 93.2 598
03:31:48 6 1000 0 0 O 0 93.1 600
03:34:46 6 1002 0 0 O 0 93.1 603
03:37:46 6 1001 0 0 O 0 93.2 601
03:40:46 6 1001 0 0 O 0 93.5 594
03:43:46 6 1001 0 0 O 0 93.9 591
03:46:47 6 1002 0 0 O 0 94 589
03:49:46 6 1001 0 0 O 0 94.2 595
03:52:46 6 1001 0 0 O 0 94.1 590
03:55:53 6 1000 0 0 O 0 94.2 594
03:58:47 6 1001 0 0 N 0 94.3 593
04:01:47 6 1000 0 0 N 0 94.6 600
04:04:45 6 1001 0 0 N 0 94.7 595
04:07:48 6 1001 0 0 N 0 94.6 598
04:10:47 6 1000 0 0 N 0 94.9 597
04:13:50 6 1001 0 0 NW 0 95.9 594
04:16:46 6 1000 0 0 NW 0 96.2 597
04:19:48 6 1001 0 0 NW 0 96 588
04:22:45 6 1001 0 0 NW 0 95.6 594
04:25:48 6 1001 0 0 NW 0 95.6 586
04:28:47 6 1000 0 0 NO 0 96 598
04:31:47 6 1000 0 0 NO 0 96 595
04:34:48 6 1001 0 0 NO 0 95.7 597
04:37:47 6 1002 0 0 NO 0 95.7 595
04:40:46 6 1001 0 0 NO 0 95.7 597
04:43:47 6 1000 0 0 NO 0 95.5 594
04:46:45 6 1001 0 0 NO 0 95.3 600
04:49:45 6 1000 0 1 N 0 95.3 600
04:52:47 6 1001 0 0 N 0 95.5 601
04:55:46 6 1000 0 0 N 0 95.8 600
04:58:46 6 1001 3 0 N 0 96.2 603
05:01:45 6 1001 5 0 N 0 95.9 600
05:04:48 6 1000 8 0 N 0 96 600
05:07:48 6 1001 11 0 N 0 95.9 594
05:10:46 6 1001 15 0 N 0 95.9 600
05:13:46 6 1000 20 0 N 0 95.9 600
05:16:48 6 1001 26 0 N 0 96.1 609
05:19:48 6 1000 35 2 SO 0 96.1 609
05:22:45 6 1001 43 0 O 0 96.1 613
05:25:46 6 1000 53 0 O 0 96 607
05:28:46 6 1000 65 1 N 0 95.9 606
05:31:49 6 1001 73 0 NW 0 95.9 609
05:34:46 6 1001 81 0 N 0 96.1 612
05:37:47 6 1000 90 0 N 0 96.2 602
05:40:49 6 999 99 0 N 0 96.3 603
05:43:47 6 1001 107 0 N 0 96.2 606
05:46:47 6 1000 117 0 N 0 96.3 615
05:49:47 6 1000 123 0 N 0 96.3 617
05:52:48 6 1000 130 0 N 0 96.5 618
05:55:45 6 1000 135 0 N 0 96.5 615
05:58:45 6 1000 141 0 N 0 96.4 615
06:01:48 6 1000 145 0 N 0 96.5 612
06:04:48 6 1000 149 0 N 0 96.5 614
06:07:47 6 1001 153 0 N 0 96.6 617
06:10:48 6 1001 158 0 N 0 96.5 618
06:13:47 6 1001 163 0 N 0 96.4 615
06:16:48 6 1000 166 0 N 0 96.5 612
06:19:48 7 1000 170 0 N 0 96.6 613
06:22:49 7 1001 170 0 N 0 96.6 620
06:25:46 7 1001 172 0 N 0 96.6 619
06:28:47 7 1000 177 0 N 0 96.5 618
06:31:46 7 1000 178 1 N 0 96.5 621
06:34:47 7 1001 176 0 SO 0 96.6 624
06:37:48 8 1000 174 0 O 0 96.6 619
06:40:47 8 1001 175 0 O 0 96.6 616
06:43:45 8 1001 177 0 O 0 96.1 606
06:46:48 8 1001 179 0 O 0 95.8 615
06:49:50 8 1001 183 0 O 0 95.6 608
06:52:45 8 1001 188 0 O 0 95.5 612
06:55:50 8 1001 188 0 O 0 95.5 616
06:58:47 8 1000 188 0 O 0 95.3 625
07:01:47 9 1000 192 0 O 0 95.2 630
07:04:50 9 1001 192 0 O 0 95.5 629
07:07:47 10 1001 191 0 O 0 95.4 625
07:10:32 8 1001 198 0 SO 0 88.2 624
07:13:47 11 1001 197 0 W 0 90.1 617
07:16:46 11 1001 191 0 W 0 89.9 621
07:19:48 13 1001 197 0 O 0 88.3 628
07:22:51 13 1000 198 0 NW 0 85.6 659
07:25:50 13 1000 198 0 O 0 85.1 664
07:28:47 13 1000 193 0 S 0 85.1 674
07:31:48 13 1001 196 0 W 0 86.1 684
07:34:49 13 1000 194 0 W 0 86.7 681
07:37:47 13 1001 195 3 NW 0 85.2 691
07:40:50 13 1000 198 0 S 0 84.4 689
07:43:49 13 1001 201 0 S 0 84.5 692
07:46:47 13 1001 204 0 S 0 85.3 703
07:49:51 13 1000 206 0 S 0 86.1 711
07:52:49 13 1000 208 3 SW 0 86 710
07:55:49 13 1000 210 0 W 0 85.5 701
07:58:48 13 1001 211 0 W 0 85.1 697
08:01:50 14 1000 212 0 W 0 84.9 692
08:04:50 14 1000 211 4 SO 0 82.2 680
08:07:49 14 1001 209 2 N 0 79.4 682
08:10:51 14 1001 208 5 W 0 79.2 680
08:13:49 14 1001 210 4 SO 0 78.6 674
08:16:46 14 1001 214 0 O 0 77.4 673
08:19:49 14 1001 216 3 W 0 76.4 683
08:22:48 14 1002 216 0 S 0 76.3 679
08:25:49 14 1001 214 1 S 0 75.8 679
08:28:47 14 1002 213 3 S 0 75.3 671
08:31:49 14 1001 214 3 SW 0 74.3 667
08:34:49 14 1001 212 6 SW 0 73.6 667
08:37:48 14 1001 211 3 SW 0 73.8 668
08:40:50 14 1002 209 1 NW 0 74.5 665
08:43:47 14 1002 216 4 S 0 74.2 661
08:46:49 14 1001 217 5 SW 0 73.6 661
08:49:49 14 1002 210 0 W 0 72.6 656
08:52:47 15 1001 210 1 W 0 73.5 659
08:55:49 15 1002 209 2 S 0 72.6 659
08:58:47 15 1002 211 3 S 0 72.3 650
09:01:52 15 1002 206 3 SO 0 71 651
09:04:48 15 1002 206 2 S 0 70.7 647
09:07:49 15 1002 214 3 S 0 70.3 641
09:10:49 15 1002 212 0 SO 0 69.5 645
09:13:48 15 1002 208 2 S 0 69.4 636
09:16:50 15 1001 209 1 SW 0 69.4 630
09:19:50 15 1002 214 1 SW 0 69.2 620
09:22:51 15 1001 216 1 S 0 68.2 619
09:25:47 15 1002 215 4 SW 0 67.4 618
09:28:50 15 1002 216 5 NW 0 66.7 618
09:31:49 16 1001 208 6 SW 0 66.4 620
09:34:48 15 1002 201 2 SW 0 65.4 615
09:37:47 15 1002 204 4 S 0 65.5 608
09:40:49 15 1002 214 3 NO 0 65.8 603
09:43:48 15 1002 219 4 S 0 66.9 606
09:46:31 14 1002 217 2 O 0 58.4 606
09:49:48 15 1001 211 2 S 0 65 600
09:52:47 15 1002 213 4 S 0 65.3 609
09:55:48 15 1002 216 0 SW 0 63.9 603
09:58:47 15 1002 218 3 S 0 64.7 600
10:01:50 15 1001 218 8 SW 0 63.4 601
10:04:49 16 1001 213 0 SW 0 62.6 603
10:07:49 16 1001 212 2 W 0 61.5 609
10:10:49 16 1002 214 4 SW 0 61.1 600
10:13:49 16 1002 218 3 S 0 60.8 601
10:16:48 16 1001 219 8 SW 0 61 597
10:19:48 16 1001 221 4 W 0 61.5 606
10:22:49 17 1002 221 2 SW 0 61.9 604
10:25:47 17 1001 213 4 W 0 59.9 604
10:28:49 17 1001 200 3 SW 0 58.1 597
10:31:50 17 1001 200 3 NW 0 58.5 598
10:34:51 16 1002 204 3 SO 0 58.6 594
10:37:48 16 1002 205 8 S 0 60.7 577
10:40:50 17 1003 209 3 NW 0 58.6 574
10:43:49 17 1002 214 2 NW 0 58.2 577
10:46:49 17 1002 218 3 SW 0 58.5 575
10:49:47 17 1002 220 2 S 0 56.7 568
10:52:47 17 1001 215 4 NW 0 55.7 561
10:55:46 18 1002 216 4 N 0 54.3 565
10:58:47 18 1001 215 2 O 0 55.3 562
11:01:47 18 1001 212 4 SO 0 54.3 565
11:04:47 18 1002 215 5 W 0 53.5 562
11:07:49 18 1001 214 11 NW 0 52.9 563
11:10:48 17 1002 208 4 S 0 52.9 569
11:13:47 17 1002 213 1 NW 0 55.2 567
11:16:47 18 1001 212 5 W 0 56.8 563
11:19:49 18 1002 217 2 NW 0 57.3 557
11:22:47 18 1001 221 6 W 0 56 551
11:25:49 19 1002 224 6 W 0 55 550
11:28:47 19 1001 225 5 W 0 55.2 551
11:31:49 19 1001 223 15 SO 0 51.3 550
11:34:49 19 1001 222 3 SW 0 51.1 550
11:37:48 20 1002 222 7 N 0 50.1 547
11:40:49 20 1002 220 3 S 0 50 542
11:43:49 20 1002 224 3 NO 0 50.8 548
11:46:47 20 1002 222 4 SW 0 49.8 551
11:49:48 20 1002 220 3 SO 0 51.3 545
11:52:46 20 1002 224 4 O 0 51.4 538
11:55:32 19 1002 226 1 SW 0 40 531
11:58:48 20 1001 229 16 S 0 46.2 521
12:01:47 20 1001 227 10 S 0 46.4 524
12:04:48 20 1001 225 3 SO 0 48.8 524
12:07:50 20 1002 223 3 NW 0 49.6 519
12:10:51 19 1001 223 12 N 0 49.8 522
12:13:48 19 1002 214 3 S 0 49.7 518
12:16:48 18 1002 204 2 NW 0 51 518
12:19:48 18 1002 204 8 SO 0 52.7 524
12:22:48 17 1002 203 5 SW 0 53 524
12:25:47 17 1002 210 3 SW 0 54.9 515
12:28:47 17 1002 215 9 O 0 56.2 513
12:31:53 17 1002 223 4 SW 0 55.7 509
12:34:49 17 1002 230 4 W 0 56 507
12:37:49 18 1002 231 2 NO 0 57.1 509
12:40:50 18 1002 230 2 SW 0 56.7 504
12:43:49 19 1001 225 4 SO 0 53.8 509
12:46:47 20 1002 221 5 NW 0 51.6 512
12:49:48 20 1002 219 9 O 0 50.8 512
12:52:48 20 1002 219 6 S 0 49.8 504
12:55:47 21 1002 224 3 SO 0 48.9 504
12:58:48 22 1002 227 2 W 0 47.2 501
13:01:52 22 1002 220 11 SW 0 41.6 509
13:04:50 21 1002 223 5 SO 0 41.6 504
13:07:47 20 1002 217 5 O 0 42.4 507
13:10:48 19 1002 224 2 W 0 47.4 506
13:13:48 20 1002 226 1 W 0 48.5 507
13:16:49 21 1002 228 2 SO 0 48.1 506
13:19:49 22 1002 230 7 SW 0 41.9 507
13:22:48 22 1002 233 2 SW 0 42.3 503
13:25:48 22 1002 232 14 W 0 41.9 498
13:28:48 22 1002 225 2 SO 0 41.7 500
13:31:48 21 1002 213 3 W 0 43.5 495
13:34:48 21 1002 226 3 SO 0 43.5 492
13:37:48 21 1002 230 1 S 0 44.5 491
13:40:51 21 1002 229 6 SO 0 45.1 486
13:43:49 21 1002 221 10 NO 0 45.2 483
13:46:47 20 1002 199 6 S 0 44.4 483
13:49:48 20 1002 191 2 S 0 43.3 483
13:52:46 20 1002 208 1 O 0 45.4 483
13:55:49 18 1002 221 2 SO 0 48.1 477
13:58:50 18 1002 231 1 NW 0 49.5 478
14:01:50 18 1002 233 3 NW 0 50.5 480
14:04:48 19 1002 237 18 SW 0 50.2 483
14:07:51 20 1002 234 2 SW 0 48.5 489
14:10:51 21 1002 240 5 SO 0 48.6 489
14:13:48 22 1002 235 6 S 0 45.1 480
14:16:47 22 1002 233 7 W 0 40.7 474
14:19:50 21 1002 234 8 SO 0 42.9 474
14:22:47 21 1002 239 7 W 0 43.1 468
14:25:47 21 1002 232 5 N 0 43 468
14:28:50 21 1002 232 2 W 0 42.7 463
14:31:50 21 1002 215 5 SW 0 43.7 462
14:34:50 21 1002 206 6 SW 0 43.8 468
14:37:52 20 1002 223 4 SO 0 43.7 463
14:40:47 20 1002 227 1 NO 0 44.2 469
14:43:46 20 1002 226 4 O 0 45.9 463
14:46:51 20 1002 232 6 SO 0 46.2 466
14:49:49 20 1002 234 5 S 0 47.2 468
14:52:47 20 1002 233 8 SO 0 45.8 471
14:55:48 20 1002 225 7 NO 0 44.9 468
14:58:47 20 1002 227 3 W 0 45.5 462
15:01:49 20 1002 244 6 SW 0 48.2 457
15:04:47 20 1002 228 3 S 0 48.6 456
15:07:50 20 1002 229 1 S 0 45.2 451
15:10:47 20 1002 237 2 W 0 45.1 454
15:13:49 20 1002 215 0 SW 0 45.6 454
15:16:46 20 1002 225 2 S 0 45.2 450
15:19:47 20 1002 230 8 S 0 45.5 447
15:22:47 19 1002 230 5 W 0 45.2 439
15:25:47 19 1002 232 6 W 0 47.3 444
15:28:50 20 1002 235 2 SO 0 48.3 466
15:31:47 20 1002 245 12 O 0 48.4 471
15:34:49 20 1002 243 2 SW 0 46.1 466
15:37:48 20 1002 245 11 NW 0 44.8 468
15:40:48 21 1002 246 13 W 0 45.3 465
15:43:52 22 1002 246 14 SW 0 44.9 468
15:46:48 22 1002 239 7 W 0 44.2 462
15:49:49 22 1002 245 8 W 0 43.9 466
15:52:48 22 1002 238 15 W 0 44 460
15:55:48 22 1002 246 4 SW 0 43.3 454
15:58:48 23 1002 244 3 SO 0 41.5 455
16:01:49 23 1002 239 6 S 0 40.8 454
16:04:47 23 1002 244 7 NO 0 40 448
16:07:50 23 1002 244 4 NW 0 39.9 448
16:10:48 23 1002 245 11 SW 0 40.5 445
16:13:48 24 1002 242 2 NW 0 40.5 444
16:16:47 24 1002 238 6 W 0 40.4 439
16:19:49 23 1002 232 4 NW 0 40.1 437
16:22:47 22 1002 231 4 W 0 41.7 445
16:25:48 21 1002 233 7 O 0 43 445
16:28:46 21 1002 243 7 S 0 44.2 447
16:31:48 21 1002 237 14 SO 0 44.2 439
16:34:49 21 1002 243 3 W 0 44.8 442
16:37:49 21 1002 240 9 W 0 45.4 438
16:40:47 20 1002 247 4 W 0 45.1 439
16:43:49 21 1002 237 1 S 0 46.5 439
16:46:48 21 1002 242 4 W 0 45.7 430
16:49:48 21 1002 235 4 W 0 44.9 430
16:52:47 20 1002 234 6 W 0 45 431
16:55:48 20 1002 236 2 O 0 46.5 436
16:58:49 21 1002 246 8 SW 0 47.5 427
17:01:49 21 1002 245 2 W 0 46.3 430
17:04:49 22 1002 230 2 S 0 44.9 430
17:07:48 22 1002 230 2 N 0 44.2 422
17:10:47 21 1002 245 2 O 0 43.6 433
17:13:46 21 1002 233 0 S 0 44.1 436
17:16:47 20 1002 239 5 SO 0 45.6 430
17:19:48 20 1002 238 2 N 0 45.7 428
17:22:49 21 1002 233 1 SW 0 45.7 427
17:25:46 21 1002 208 1 0 44.7 422
17:28:48 20 1002 218 7 W 0 44.5 419
17:31:49 20 1002 218 3 SW 0 45.8 416
17:34:47 20 1002 215 3 SW 0 47.2 427
17:37:47 20 1002 227 2 O 0 47.5 436
17:40:48 20 1002 227 4 NW 0 47.1 437
17:43:49 20 1002 226 1 S 0 48 428
17:46:48 20 1002 236 0 W 0 48 421
17:49:49 21 1002 246 4 SW 0 47.9 424
17:52:48 22 1002 246 2 S 0 45.8 430
17:55:47 23 1002 245 3 SO 0 44.9 439
17:58:48 23 1002 245 4 S 0 43 440
18:01:48 23 1002 230 0 NO 0 41.6 445
18:04:49 22 1002 223 3 SW 0 41.8 456
18:07:48 21 1002 244 2 SW 0 42.7 460
18:10:46 21 1002 234 3 S 0 44.8 471
18:13:48 20 1002 165 2 SW 0 45.8 477
18:16:49 20 1002 224 2 N 0 46.3 492
18:19:47 20 1002 213 2 W 0 46.1 492
18:22:51 19 1002 214 5 SW 0 47 493
18:25:49 19 1002 214 17 SO 0 47.9 501
18:28:50 19 1002 211 4 SO 0 49 507
18:31:49 18 1003 212 3 NW 0 49.6 507
18:34:52 18 1002 232 1 SW 0 50.4 519
18:37:49 19 1002 233 0 O 0 50.8 521
18:40:48 19 1002 230 1 S 0 50.1 524
18:43:48 20 1002 230 1 SO 0 49.2 530
18:46:49 20 1002 227 0 W 0 48.8 530
18:49:50 19 1002 222 3 SW 0 48.8 536
18:52:49 19 1002 217 2 W 0 49.6 539
18:55:50 19 1002 210 1 SO 0 50.8 539
18:58:48 18 1002 214 2 W 0 51.3 523
19:01:48 18 1002 214 11 W 0 51.7 548
19:04:47 18 1002 215 0 NO 0 51.7 554
19:07:49 18 1002 218 1 NW 0 52.7 556
19:10:48 18 1002 217 0 N 0 52.8 565
19:13:49 18 1002 220 3 SO 0 52.9 571
19:16:47 18 1002 218 0 O 0 52.7 580
19:19:48 18 1002 220 2 SO 0 52.5 577
19:22:48 18 1002 220 2 SO 0 53 582
19:25:50 18 1002 217 0 SW 0 53.2 574
19:28:50 18 1002 214 2 W 0 53.7 568
19:31:48 17 1002 209 0 W 0 54.1 574
19:34:49 17 1002 202 1 NW 0 54.7 571
19:37:49 17 1002 201 0 SO 0 55.3 565
19:40:49 17 1002 210 1 SW 0 55.6 563
19:43:48 17 1002 215 1 O 0 56.1 557
19:46:52 17 1002 207 1 NW 0 56.2 558
19:49:50 17 1002 202 1 S 0 56.2 556
19:52:49 17 1002 199 5 W 0 55.6 551
19:55:47 17 1002 203 2 S 0 55.5 554
19:58:47 17 1002 201 0 SO 0 55.7 555
20:01:51 16 1002 191 1 SW 0 57 557
20:04:50 16 1002 179 0 SO 0 57.3 552
20:07:46 16 1002 171 0 S 0 57.4 551
20:10:50 16 1002 178 0 S 0 58 560
20:13:49 16 1002 168 0 S 0 58.4 568
20:16:49 16 1002 153 1 SW 0 58.5 578
20:19:47 16 1002 148 1 O 0 59 583
20:22:50 16 1002 144 0 NW 0 59.1 592
20:25:49 16 1002 132 1 SO 0 59.4 595
20:28:47 16 1002 121 1 N 0 60.1 597
20:31:49 16 1002 128 0 SO 0 60.1 601
20:34:48 16 1002 139 0 SW 0 60.1 600
20:37:48 16 1002 147 1 S 0 60.3 604
20:40:49 15 1002 136 0 S 0 61 600
20:43:48 15 1002 131 1 S 0 61.1 611
20:46:48 15 1002 121 2 O 0 61 607
20:49:46 15 1002 112 1 S 0 61.2 621
20:52:49 15 1002 101 0 SO 0 61.5 632
20:55:46 15 1002 90 0 S 0 62.2 635
20:58:50 14 1002 79 0 SO 0 62.4 639
21:01:48 14 1002 69 1 S 0 63.2 635
21:04:47 14 1002 60 0 S 0 63.4 638
21:07:46 14 1002 52 0 S 0 63.6 642
21:10:48 14 1002 43 1 SW 0 63.9 649
21:13:45 14 1002 34 0 S 0 64.1 649
21:16:46 14 1002 27 0 SO 0 64.5 659
21:19:49 14 1003 21 1 SO 0 65.3 665
21:22:48 14 1002 16 1 SW 0 65.9 667
21:25:48 14 1003 12 0 SO 0 66 674
21:28:46 13 1002 9 0 O 0 66.6 677
21:31:46 13 1002 7 0 S 0 66.9 671
21:34:46 13 1002 5 0 SO 0 67.4 674
21:37:48 13 1002 0 0 SW 0 68.4 679
21:40:48 13 1002 0 0 S 0 68.7 689
21:43:46 13 1002 0 0 S 0 68.8 621
21:46:49 13 1002 0 1 SO 0 69.2 524
21:49:47 13 1003 0 0 SW 0 69.8 515
21:52:47 13 1002 0 0 SO 0 70.3 516
21:55:48 13 1002 0 0 SW 0 70.6 507
21:58:46 13 1002 0 0 SW 0 70.7 495
22:01:49 12 1002 0 0 SW 0 71.4 499
22:04:48 12 1002 0 0 SW 0 72.1 495
22:07:49 12 1002 0 0 S 0 72.7 490
22:10:47 12 1002 0 0 W 0 73 495
22:13:46 12 1002 0 0 W 0 73.3 492
22:16:47 12 1002 0 4 W 0 73.8 483
22:19:49 12 1002 0 0 S 0 73.9 478
22:22:50 12 1002 0 0 NW 0 73.9 474
22:25:48 12 1002 0 0 SW 0 74 477
22:28:47 12 1003 0 0 S 0 74.3 474
22:31:45 12 1002 0 0 SO 0 74.5 471
22:34:46 12 1002 0 0 O 0 74.4 463
22:37:46 11 1002 0 0 SO 0 74.5 468
22:40:48 11 1002 0 0 SW 0 74.9 466
22:43:47 11 1002 0 0 S 0 75.8 468
22:46:45 11 1002 0 0 S 0 75.8 468
22:49:46 11 1003 0 0 SO 0 76 475
22:52:45 11 1003 0 1 O 0 75.9 501
22:55:48 11 1002 0 3 SW 0 76.3 536
22:58:48 11 1002 0 0 S 0 76.9 594
23:01:47 11 1003 0 0 S 0 77.2 605
23:04:48 11 1003 0 0 W 0 77.3 592
23:07:46 11 1003 0 0 W 0 77.5 595
23:10:46 11 1003 0 0 S 0 77.6 591
23:13:46 11 1002 0 0 S 0 78 592
23:16:49 11 1003 0 0 NW 0 78.5 597
23:19:48 10 1003 0 0 O 0 78.6 596
23:22:47 10 1003 0 0 W 0 78.7 589
23:25:47 10 1002 0 0 W 0 79.2 583
23:28:48 10 1003 0 0 W 0 79.4 583
23:31:47 10 1003 0 0 W 0 80.2 586
23:34:46 10 1003 0 0 W 0 80.3 588
23:37:47 10 1003 0 0 W 0 80.8 587
23:40:48 10 1002 0 0 W 0 81.5 580
23:43:47 10 1003 0 0 NW 0 82 580
23:46:48 9 1002 0 0 NW 0 81.6 580
23:49:48 9 1002 0 0 NW 0 81.4 579
23:52:48 9 1002 0 0 NW 0 81.3 575
23:55:48 9 1002 0 0 NW 0 81.8 577
23:58:48 9 1003 0 0 NW 0 81.9 580

Letzte Änderung : 04-Jan-2022
Copyright Jens Köhler, Wolfsburg, Obere Dorfstraße 10d